Dewpoint
57 57 57 57 57 57 57 57 58 58 58 58 58 59 60 61 60 56 36 43 65 77 76 71 69 63 63 64 65 63 53 50 50 53 56 57 55 58 59 55 56 60 58 60 64
57 57 57 56 56 56 57 57 57 57 57 57 57 59 60 61 56 48 56 70 77 76 68 67 60 62 62 63 62 58 52 52 56 53 57 56 57 58 56 56 57 58 60 63 65
57 57 57 56 57 56 56 56 57 57 57 57 58 59 60 61 45 29 68 77 77 74 67 64 61 61 59 60 59 56 51 56 55 56 57 56 58 59 55 57 58 56 59 62 64
57 57 57 56 56 56 56 56 56 56 56 57 58 59 60 57 32 53 76 77 77 67 65 62 59 56 55 54 59 55 57 57 57 57 58 58 59 56 58 58 59 59 60 63 64
56 56 56 56 56 56 56 56 56 56 56 57 58 59 55 40 22 71 77 76 71 69 63 61 57 57 54 55 59 57 55 57 58 57 56 57 58 57 57 58 60 61 61 63 64
56 56 56 56 56 56 56 56 56 56 56 57 58 59 49 11 55 73 72 70 69 67 60 59 59 59 56 55 55 55 53 54 56 57 57 55 58 58 58 59 60 61 61 63 64
56 56 56 56 56 56 56 55 56 56 56 58 58 58 43 3 60 70 68 66 68 66 61 59 62 60 55 53 55 53 49 53 53 58 56 58 57 57 59 59 59 60 61 62 64
56 56 55 55 55 55 55 55 55 56 58 59 59 54 20 26 65 66 58 61 64 67 60 62 62 60 58 55 55 52 53 51 53 57 57 55 51 59 59 58 58 59 60 59 63
57 55 55 55 55 54 54 55 56 58 59 60 51 48 14 53 48 55 49 47 58 60 59 59 56 56 46 44 47 51 49 50 49 55 55 53 52 59 59 57 57 57 58 58 58
55 55 55 55 54 53 54 55 58 58 59 60 56 40 36 36 37 45 50 49 47 53 52 53 51 44 44 39 37 46 48 50 50 55 54 52 53 58 59 58 57 58 58 58 57
56 55 54 54 53 53 51 53 43 42 50 17 20 26 31 33 44 42 47 48 47 47 44 47 41 41 44 41 40 47 48 48 50 52 52 52 53 56 58 57 57 57 57 58 58
55 55 54 53 53 53 50 43 41 41 36 43 34 40 38 38 35 39 46 44 46 44 41 38 36 38 38 37 40 41 47 47 50 52 50 51 52 54 54 56 57 56 57 57 57
56 55 54 53 53 50 44 37 41 43 33 31 41 37 34 30 26 34 46 45 43 44 40 39 37 37 35 38 40 40 45 45 45 50 50 51 50 53 56 57 57 56 55 54 54
56 55 53 53 49 47 44 46 43 38 23 20 33 30 29 29 26 32 47 45 41 40 39 37 36 32 28 32 40 39 40 45 50 46 42 49 39 49 55 57 57 56 56 53 51
55 56 53 52 46 41 41 43 40 34 21 27 28 28 25 24 25 32 41 39 38 35 33 31 24 23 23 21 37 38 48 49 47 44 44 46 41 44 54 54 55 55 56 58 59
55 54 53 51 48 43 46 43 35 29 23 27 22 21 20 19 19 30 37 34 36 35 27 25 28 23 23 26 38 43 40 37 39 38 36 38 38 41 50 51 55 57 57 59 60
54 53 52 49 40 46 43 38 31 25 28 21 18 20 21 18 18 23 32 31 31 23 23 20 24 22 25 22 30 37 22 23 32 37 35 40 40 41 48 52 54 56 60 61 61
52 52 52 51 47 46 41 36 34 29 30 19 15 16 20 17 17 21 30 30 27 20 17 19 14 17 21 21 22 32 20 18 21 31 37 43 41 42 48 50 54 57 58 60 61
51 49 48 48 51 46 40 34 34 35 33 15 20 13 14 14 14 19 24 27 28 23 16 21 18 22 20 20 18 19 18 30 37 38 37 40 43 45 49 51 53 55 58 58 59
50 48 47 49 48 42 39 37 37 38 36 34 24 21 12 14 12 21 17 19 21 19 21 20 18 19 20 14 11 26 23 17 30 34 33 36 40 42 48 51 54 57 59 58 59
50 45 47 48 44 41 37 39 38 33 37 34 35 33 30 31 13 16 16 21 20 21 17 21 25 17 18 23 18 9 12 23 33 34 32 32 38 49 50 54 56 57 57 60 59
45 42 47 43 38 41 37 39 38 32 36 36 37 36 35 33 32 29 26 27 29 26 26 29 20 20 17 21 24 9 17 19 9 25 35 36 40 53 57 57 58 57 59 61 61
49 48 46 41 38 41 39 34 34 32 34 34 36 34 39 37 34 36 35 35 36 25 23 24 22 23 23 25 26 26 28 23 35 39 40 36 39 55 54 55 58 59 60 61 65
48 42 44 44 43 44 36 33 33 34 29 34 37 38 36 35 36 34 34 35 36 39 53 39 25 25 25 26 28 27 29 36 37 34 40 41 43 50 51 52 54 59 63 65 65
47 46 48 43 43 43 37 34 33 31 30 28 32 35 36 31 32 33 32 33 36 43 32 28 25 37 27 29 30 30 39 31 32 37 35 37 45 48 50 52 59 64 64 63 64
48 48 49 47 47 37 37 35 34 32 29 26 32 33 31 30 29 28 28 31 32 30 28 26 24 35 25 26 30 34 36 44 44 43 42 44 44 46 52 63 64 63 59 60 64
53 52 50 45 45 41 40 37 38 37 34 32 29 32 31 31 32 31 29 31 41 37 28 25 24 23 26 26 28 29 36 38 46 44 42 41 44 49 56 62 62 61 58 57 60
Lifted_Index
17 17 17 17 17 17 17 17 17 16 16 16 16 15 13 12 11 9 7 4 -0 -4 -5 -4 -3 -2 -1 -2 -2 -1 -1 -1 -2 -2 -3 -3 -2 -3 -3 -2 -2 -3 -2 -2 -2
16 16 17 17 17 17 16 16 16 16 16 16 16 15 13 12 9 8 7 3 -2 -4 -4 -3 -2 -1 -1 -1 -2 -1 -1 -1 -2 -2 -3 -3 -3 -3 -3 -2 -3 -3 -3 -3 -2
16 16 16 16 17 17 16 16 16 16 16 16 15 15 13 11 7 5 4 -1 -3 -4 -3 -2 -1 -1 -1 -1 -1 -1 -1 -1 -2 -3 -3 -3 -3 -3 -3 -3 -3 -3 -3 -3 -3
15 15 16 16 16 16 16 16 16 16 16 16 15 14 12 9 5 3 -0 -3 -4 -3 -3 -2 -1 -1 -2 -2 -1 -1 -1 -2 -2 -2 -3 -3 -3 -3 -3 -3 -3 -3 -3 -4 -4
14 14 15 15 16 16 16 16 16 15 15 15 15 14 11 7 4 0 -3 -4 -4 -3 -3 -2 -2 -3 -3 -2 -2 -2 -1 -2 -2 -2 -2 -3 -3 -3 -3 -3 -3 -3 -3 -4 -4
13 14 14 14 14 15 16 16 15 15 15 15 14 13 9 6 3 -0 -2 -3 -3 -3 -3 -3 -3 -4 -3 -3 -2 -1 -1 -1 -2 -2 -2 -2 -3 -3 -3 -2 -3 -3 -3 -4 -4
13 13 13 13 14 14 15 15 15 15 14 14 13 12 9 6 3 0 -1 -2 -2 -3 -3 -3 -4 -4 -4 -3 -2 -1 0 -0 -1 -2 -2 -2 -2 -2 -2 -2 -2 -2 -3 -3 -4
12 12 12 13 14 14 15 15 15 14 14 13 12 11 9 7 4 1 1 0 -1 -2 -3 -3 -3 -3 -3 -2 -1 -1 -0 -0 -1 -2 -2 -2 -2 -2 -2 -1 -1 -2 -2 -3 -3
11 11 12 13 14 15 15 15 14 13 12 11 11 10 8 7 5 3 3 3 1 -1 -2 -2 -2 -2 -2 -1 -1 -1 -1 -1 -1 -2 -2 -1 -1 -2 -2 -1 -1 -1 -2 -2 -2
11 11 12 14 14 15 14 13 12 11 11 10 9 8 8 7 5 5 5 5 3 1 -0 -1 -1 -1 -1 -1 -1 -1 -1 -1 -1 -2 -1 -1 -1 -2 -2 -1 -1 -1 -1 -1 -2
11 11 12 13 14 13 12 11 10 9 9 8 8 8 7 6 5 5 4 4 3 2 0 -0 -0 -0 -0 -0 0 -0 -1 -1 -1 -1 -1 -1 -1 -2 -2 -1 -1 -1 -1 -1 -1
10 10 11 12 12 11 10 8 8 8 7 7 7 7 7 6 6 5 4 3 2 1 -0 -1 -0 -0 0 0 1 0 -0 -1 -1 -1 -1 -1 -1 -2 -2 -1 -1 -1 -1 -1 -1
10 10 10 10 10 9 8 7 7 7 6 6 7 7 6 6 5 5 3 2 1 0 -0 -1 -0 0 1 1 1 0 0 -0 -1 -1 -1 -0 -1 -1 -2 -1 -1 -1 -1 -1 -1
9 9 9 8 8 7 7 7 7 6 5 5 5 6 6 5 5 4 3 2 1 1 0 0 -0 0 0 1 1 1 0 -0 -1 -1 -0 -0 -0 -1 -1 -1 -1 -1 -1 -0 -0
8 8 8 7 6 6 6 6 5 4 3 3 4 5 5 5 4 4 3 2 2 1 1 1 0 0 0 1 1 0 -0 -1 -1 -0 -0 0 0 0 -0 -1 -1 -1 -1 -0 -0
7 7 6 6 5 5 5 4 4 2 2 3 4 4 4 4 4 4 3 2 2 2 2 1 1 1 0 0 0 -0 -0 -1 -1 -0 0 1 1 1 0 -1 -1 -1 -1 -1 -0
5 5 5 5 5 5 4 3 2 1 1 2 3 3 3 4 4 4 3 3 3 2 2 1 1 1 0 0 0 0 0 -0 -0 -0 0 1 1 1 0 -0 -1 -1 -2 -2 -1
4 4 4 5 5 4 3 1 1 1 1 2 2 2 2 3 3 3 3 3 3 2 1 1 0 0 1 1 1 1 1 0 -0 -0 0 1 1 1 1 0 -0 -1 -2 -2 -2
2 2 3 3 4 3 2 1 1 1 1 2 2 1 1 2 2 2 2 2 2 2 1 1 0 0 1 1 1 1 1 0 0 0 -0 0 1 1 1 0 -0 -1 -1 -2 -2
2 2 2 2 3 2 1 1 1 1 1 1 1 1 1 1 1 2 2 1 1 1 1 1 1 0 0 0 1 1 1 1 0 0 -0 -0 0 1 1 0 -0 -1 -2 -2 -2
1 1 2 2 2 2 1 1 1 1 1 1 0 0 0 0 1 1 1 1 1 1 1 1 1 0 0 0 1 1 1 1 0 -0 -0 -0 -0 0 0 -0 -1 -1 -2 -2 -2
1 1 2 2 1 1 1 1 1 1 1 0 0 0 0 0 0 0 1 1 1 1 1 1 1 0 0 0 0 1 1 0 0 -0 -0 -1 -1 -1 -1 -1 -1 -2 -2 -2 -3
1 1 1 1 1 1 1 1 1 1 0 0 0 0 0 0 0 0 1 1 1 1 1 1 1 0 0 0 1 0 0 0 -0 -0 -0 -0 -1 -1 -1 -1 -2 -3 -3 -4 -4
1 1 1 1 1 1 1 1 1 1 1 0 0 0 0 0 0 0 1 1 1 1 1 1 1 0 0 0 1 0 0 0 -0 -0 -0 -0 -1 -1 -1 -2 -3 -4 -5 -5 -5
1 1 1 1 1 1 1 1 1 1 1 1 1 1 1 0 0 0 1 1 1 1 1 1 1 1 1 1 1 0 0 0 0 0 0 -0 -0 -1 -2 -3 -5 -5 -5 -5 -5
3 2 2 2 1 1 1 1 1 1 1 1 2 2 1 1 1 1 1 1 1 1 1 1 1 1 1 1 0 0 0 0 0 0 0 0 -0 -1 -3 -4 -5 -4 -3 -3 -3
4 3 2 2 2 2 2 2 2 2 2 2 2 2 2 2 1 1 1 1 0 0 1 1 1 1 1 0 0 0 -0 -0 -0 0 0 -0 -1 -2 -4 -5 -5 -3 -2 -1 -2